Powrót do katalogu

METEOR 2-7 DEB

AktywnyPO
NORAD 38288·DEBRIS·🇷🇺 Russia

Wystrzelony May 14, 1981 z Plesetsk Cosmodrome

Loading…

Następne Przeloty (najbliższe 24 godziny)

TLE

Starzejące sięSource: Space-Track

Epoka: Sep 5, 2026, 08:51 UTC

1 38288U 81043W   26248.36942139  .00003058  00000-0  83630-3 0  9993
2 38288  81.2510 269.1230 0032029 318.6570  41.2196 14.46759919512542

Śledź METEOR 2-7 DEB w czasie rzeczywistym z AllMySat

Download on the App Store